Location: Nandig?ma
(16.7717°N, 80.2860°E)
Time: 10:19:18
(UTC+00:00)

Cosmos 1821 Rocket - Pass Details

Date: 03 August 2024
Orbit: 943 x 1005 km, 82.9° (Epoch: 18 September)

Event Time Altitude Azimuth Distance (km) Brightness Sun altitude
Rises 14:05:27 0° 165° (SSE) 3,682 6.7 -13.2°
Reaches altitude 10° 14:08:08 10° 157° (SSE) 2,743 5.9 -13.8°
Maximum altitude 14:13:55 39° 91° (E) 1,452 4.5 -15.1°
Drops below altitude 10° 14:19:45 10° 24° (NNE) 2,772 6.4 -16.4°
Sets 14:22:27 0° 17° (NNE) 3,725 7.1 -16.9°
